Year,Month,Day,Hour,Minute,Value (Times are PST for temperature in C)
2017,07,20,00,00,18.70
2017,07,20,00,01,18.70
2017,07,20,00,02,18.70
2017,07,20,00,03,18.70
2017,07,20,00,04,18.70
2017,07,20,00,05,18.70
2017,07,20,00,06,18.70
2017,07,20,00,07,18.70
2017,07,20,00,08,18.70
2017,07,20,00,09,18.70
2017,07,20,00,10,18.70
2017,07,20,00,11,18.70
2017,07,20,00,12,18.70
2017,07,20,00,13,18.80
2017,07,20,00,14,18.80
2017,07,20,00,15,18.80
2017,07,20,00,16,18.70
2017,07,20,00,17,18.70
2017,07,20,00,18,18.70
2017,07,20,00,19,18.70
2017,07,20,00,20,18.70
2017,07,20,00,21,18.70
2017,07,20,00,22,18.70
2017,07,20,00,23,18.70
2017,07,20,00,24,18.70
2017,07,20,00,25,18.80
2017,07,20,00,26,18.80
2017,07,20,00,27,18.80
2017,07,20,00,28,18.80
2017,07,20,00,29,18.80
2017,07,20,00,30,18.80
2017,07,20,00,31,18.80
2017,07,20,00,32,18.80
2017,07,20,00,33,18.80
2017,07,20,00,34,18.80
2017,07,20,00,35,18.80
2017,07,20,00,36,18.80
2017,07,20,00,37,18.80
2017,07,20,00,38,18.80
2017,07,20,00,39,18.80
2017,07,20,00,40,18.80
2017,07,20,00,41,18.80
2017,07,20,00,42,18.80
2017,07,20,00,43,18.80
2017,07,20,00,44,18.80
2017,07,20,00,45,18.80
2017,07,20,00,46,18.80
2017,07,20,00,47,18.80
2017,07,20,00,48,18.70
2017,07,20,00,49,18.80
2017,07,20,00,50,18.80
2017,07,20,00,51,18.80
2017,07,20,00,52,18.80
2017,07,20,00,53,18.80
2017,07,20,00,54,18.70
2017,07,20,00,55,18.70
2017,07,20,00,56,18.70
2017,07,20,00,57,18.70
2017,07,20,00,58,18.70
2017,07,20,00,59,18.70
2017,07,20,01,00,18.70
2017,07,20,01,01,18.70
2017,07,20,01,02,18.70
2017,07,20,01,03,18.70
2017,07,20,01,04,18.60
2017,07,20,01,05,18.60
2017,07,20,01,06,18.60
2017,07,20,01,07,18.60
2017,07,20,01,08,18.60
2017,07,20,01,09,18.60
2017,07,20,01,10,18.60
2017,07,20,01,11,18.60
2017,07,20,01,12,18.60
2017,07,20,01,13,18.50
2017,07,20,01,14,18.50
2017,07,20,01,15,18.50
2017,07,20,01,16,18.50
2017,07,20,01,17,18.50
2017,07,20,01,18,18.50
2017,07,20,01,19,18.50
2017,07,20,01,20,18.40
2017,07,20,01,21,18.40
2017,07,20,01,22,18.40
2017,07,20,01,23,18.40
2017,07,20,01,24,18.40
2017,07,20,01,25,18.40
2017,07,20,01,26,18.30
2017,07,20,01,27,18.30
2017,07,20,01,28,18.30
2017,07,20,01,29,18.30
2017,07,20,01,30,18.30
2017,07,20,01,31,18.30
2017,07,20,01,32,18.30
2017,07,20,01,33,18.30
2017,07,20,01,34,18.30
2017,07,20,01,35,18.20
2017,07,20,01,36,18.20
2017,07,20,01,37,18.20
2017,07,20,01,38,18.20
2017,07,20,01,39,18.20
2017,07,20,01,40,18.20
2017,07,20,01,41,18.20
2017,07,20,01,42,18.20
2017,07,20,01,43,18.20
2017,07,20,01,44,18.20
2017,07,20,01,45,18.20
2017,07,20,01,46,18.10
2017,07,20,01,47,18.10
2017,07,20,01,48,18.10
2017,07,20,01,49,18.10
2017,07,20,01,50,18.10
2017,07,20,01,51,18.10
2017,07,20,01,52,18.10
2017,07,20,01,53,18.10
2017,07,20,01,54,18.10
2017,07,20,01,55,18.10
2017,07,20,01,56,18.10
2017,07,20,01,57,18.00
2017,07,20,01,58,18.00
2017,07,20,01,59,18.00
2017,07,20,02,00,18.00
2017,07,20,02,01,18.00
2017,07,20,02,02,18.00
2017,07,20,02,03,18.00
2017,07,20,02,04,18.00
2017,07,20,02,05,18.00
2017,07,20,02,06,18.00
2017,07,20,02,07,18.00
2017,07,20,02,08,18.00
2017,07,20,02,09,18.00
2017,07,20,02,10,18.00
2017,07,20,02,11,18.00
2017,07,20,02,12,18.00
2017,07,20,02,13,18.00
2017,07,20,02,14,18.00
2017,07,20,02,15,18.00
2017,07,20,02,16,17.90
2017,07,20,02,17,17.90
2017,07,20,02,18,17.90
2017,07,20,02,19,17.90
2017,07,20,02,20,17.90
2017,07,20,02,21,17.90
2017,07,20,02,22,17.90
2017,07,20,02,23,17.90
2017,07,20,02,24,17.80
2017,07,20,02,25,17.80
2017,07,20,02,26,17.80
2017,07,20,02,27,17.80
2017,07,20,02,28,17.80
2017,07,20,02,29,17.80
2017,07,20,02,30,17.80
2017,07,20,02,31,17.80
2017,07,20,02,32,17.80
2017,07,20,02,33,17.80
2017,07,20,02,34,17.70
2017,07,20,02,35,17.70
2017,07,20,02,36,17.70
2017,07,20,02,37,17.70
2017,07,20,02,38,17.70
2017,07,20,02,39,17.70
2017,07,20,02,40,17.70
2017,07,20,02,41,17.70
2017,07,20,02,42,17.60
2017,07,20,02,43,17.60
2017,07,20,02,44,17.60
2017,07,20,02,45,17.60
2017,07,20,02,46,17.60
2017,07,20,02,47,17.60
2017,07,20,02,48,17.60
2017,07,20,02,49,17.60
2017,07,20,02,50,17.60
2017,07,20,02,51,17.60
2017,07,20,02,52,17.60
2017,07,20,02,53,17.60
2017,07,20,02,54,17.60
2017,07,20,02,55,17.50
2017,07,20,02,56,17.50
2017,07,20,02,57,17.50
2017,07,20,02,58,17.50
2017,07,20,02,59,17.50
2017,07,20,03,00,17.40
2017,07,20,03,01,17.40
2017,07,20,03,02,17.40
2017,07,20,03,03,17.40
2017,07,20,03,04,17.40
2017,07,20,03,05,17.40
2017,07,20,03,06,17.40
2017,07,20,03,07,17.30
2017,07,20,03,08,17.30
2017,07,20,03,09,17.40
2017,07,20,03,10,17.40
2017,07,20,03,11,17.40
2017,07,20,03,12,17.40
2017,07,20,03,13,17.40
2017,07,20,03,14,17.40
2017,07,20,03,15,17.40
2017,07,20,03,16,17.40
2017,07,20,03,17,17.40
2017,07,20,03,18,17.40
2017,07,20,03,19,17.40
2017,07,20,03,20,17.40
2017,07,20,03,21,17.40
2017,07,20,03,22,17.40
2017,07,20,03,23,17.40
2017,07,20,03,24,17.40
2017,07,20,03,25,17.40
2017,07,20,03,26,17.30
2017,07,20,03,27,17.20
2017,07,20,03,28,17.10
2017,07,20,03,29,17.00
2017,07,20,03,30,17.00
2017,07,20,03,31,16.90
2017,07,20,03,32,16.80
2017,07,20,03,33,16.80
2017,07,20,03,34,16.80
2017,07,20,03,35,16.80
2017,07,20,03,36,16.70
2017,07,20,03,37,16.70
2017,07,20,03,38,16.70
2017,07,20,03,39,16.70
2017,07,20,03,40,16.70
2017,07,20,03,41,16.60
2017,07,20,03,42,16.60
2017,07,20,03,43,16.60
2017,07,20,03,44,16.60
2017,07,20,03,45,16.60
2017,07,20,03,46,16.50
2017,07,20,03,47,16.50
2017,07,20,03,48,16.50
2017,07,20,03,49,16.40
2017,07,20,03,50,16.40
2017,07,20,03,51,16.40
2017,07,20,03,52,16.30
2017,07,20,03,53,16.30
2017,07,20,03,54,16.30
2017,07,20,03,55,16.30
2017,07,20,03,56,16.20
2017,07,20,03,57,16.20
2017,07,20,03,58,16.20
2017,07,20,03,59,16.20
2017,07,20,04,00,16.20
2017,07,20,04,01,16.10
2017,07,20,04,02,16.10
2017,07,20,04,03,16.10
2017,07,20,04,04,16.10
2017,07,20,04,05,16.10
2017,07,20,04,06,16.10
2017,07,20,04,07,16.10
2017,07,20,04,08,16.00
2017,07,20,04,09,16.00
2017,07,20,04,10,16.00
2017,07,20,04,11,16.00
2017,07,20,04,12,16.00
2017,07,20,04,13,16.00
2017,07,20,04,14,16.00
2017,07,20,04,15,16.00
2017,07,20,04,16,16.00
2017,07,20,04,17,15.90
2017,07,20,04,18,15.90
2017,07,20,04,19,15.90
2017,07,20,04,20,15.80
2017,07,20,04,21,15.80
2017,07,20,04,22,15.80
2017,07,20,04,23,15.70
2017,07,20,04,24,15.70
2017,07,20,04,25,15.70
2017,07,20,04,26,15.60
2017,07,20,04,27,15.60
2017,07,20,04,28,15.50
2017,07,20,04,29,15.50
2017,07,20,04,30,15.50
2017,07,20,04,31,15.40
2017,07,20,04,32,15.40
2017,07,20,04,33,15.30
2017,07,20,04,34,15.20
2017,07,20,04,35,15.20
2017,07,20,04,36,15.10
2017,07,20,04,37,15.10
2017,07,20,04,38,15.00
2017,07,20,04,39,14.90
2017,07,20,04,40,14.90
2017,07,20,04,41,14.80
2017,07,20,04,42,14.80
2017,07,20,04,43,14.70
2017,07,20,04,44,14.70
2017,07,20,04,45,14.70
2017,07,20,04,46,14.60
2017,07,20,04,47,14.60
2017,07,20,04,48,14.50
2017,07,20,04,49,14.50
2017,07,20,04,50,14.50
2017,07,20,04,51,14.40
2017,07,20,04,52,14.40
2017,07,20,04,53,14.40
2017,07,20,04,54,14.40
2017,07,20,04,55,14.40
2017,07,20,04,56,14.40
2017,07,20,04,57,14.40
2017,07,20,04,58,14.40
2017,07,20,04,59,14.40
2017,07,20,05,00,14.40
2017,07,20,05,01,14.40
2017,07,20,05,02,14.40
2017,07,20,05,03,14.40
2017,07,20,05,04,14.40
2017,07,20,05,05,14.40
2017,07,20,05,06,14.40
2017,07,20,05,07,14.40
2017,07,20,05,08,14.40
2017,07,20,05,09,14.40
2017,07,20,05,10,14.40
2017,07,20,05,11,14.40
2017,07,20,05,12,14.40
2017,07,20,05,13,14.50
2017,07,20,05,14,14.50
2017,07,20,05,15,14.50
2017,07,20,05,16,14.50
2017,07,20,05,17,14.50
2017,07,20,05,18,14.50
2017,07,20,05,19,14.50
2017,07,20,05,20,14.50
2017,07,20,05,21,14.50
2017,07,20,05,22,14.50
2017,07,20,05,23,14.50
2017,07,20,05,24,14.50
2017,07,20,05,25,14.50
2017,07,20,05,26,14.50
2017,07,20,05,27,14.50
2017,07,20,05,28,14.50
2017,07,20,05,29,14.40
2017,07,20,05,30,14.40
2017,07,20,05,31,14.40
2017,07,20,05,32,14.40
2017,07,20,05,33,14.40
2017,07,20,05,34,14.40
2017,07,20,05,35,14.40
2017,07,20,05,36,14.40
2017,07,20,05,37,14.40
2017,07,20,05,38,14.40
2017,07,20,05,39,14.40
2017,07,20,05,40,14.50
2017,07,20,05,41,14.50
2017,07,20,05,42,14.60
2017,07,20,05,43,14.60
2017,07,20,05,44,14.60
2017,07,20,05,45,14.70
2017,07,20,05,46,14.70
2017,07,20,05,47,14.70
2017,07,20,05,48,14.80
2017,07,20,05,49,14.80
2017,07,20,05,50,14.80
2017,07,20,05,51,14.80
2017,07,20,05,52,14.80
2017,07,20,05,53,14.80
2017,07,20,05,54,14.80
2017,07,20,05,55,14.80
2017,07,20,05,56,14.80
2017,07,20,05,57,14.80
2017,07,20,05,58,14.80
2017,07,20,05,59,14.80
2017,07,20,06,00,14.80
2017,07,20,06,01,14.80
2017,07,20,06,02,14.90
2017,07,20,06,03,14.90
2017,07,20,06,04,14.90
2017,07,20,06,05,14.90
2017,07,20,06,06,14.90
2017,07,20,06,07,14.90
2017,07,20,06,08,14.90
2017,07,20,06,09,14.90
2017,07,20,06,10,14.90
2017,07,20,06,11,14.90
2017,07,20,06,12,15.00
2017,07,20,06,13,15.00
2017,07,20,06,14,15.00
2017,07,20,06,15,15.00
2017,07,20,06,16,15.00
2017,07,20,06,17,15.00
2017,07,20,06,18,15.00
2017,07,20,06,19,15.00
2017,07,20,06,20,15.00
2017,07,20,06,21,15.00
2017,07,20,06,22,15.00
2017,07,20,06,23,15.00
2017,07,20,06,24,15.00
2017,07,20,06,25,15.00
2017,07,20,06,26,15.00
2017,07,20,06,27,15.00
2017,07,20,06,28,15.00
2017,07,20,06,29,15.00
2017,07,20,06,30,14.90
2017,07,20,06,31,15.00
2017,07,20,06,32,15.00
2017,07,20,06,33,15.00
2017,07,20,06,34,14.90
2017,07,20,06,35,14.90
2017,07,20,06,36,14.90
2017,07,20,06,37,15.00
2017,07,20,06,38,15.00
2017,07,20,06,39,15.00
2017,07,20,06,40,15.00
2017,07,20,06,41,15.00
2017,07,20,06,42,15.10
2017,07,20,06,43,15.10
2017,07,20,06,44,15.10
2017,07,20,06,45,15.20
2017,07,20,06,46,15.20
2017,07,20,06,47,15.20
2017,07,20,06,48,15.30
2017,07,20,06,49,15.30
2017,07,20,06,50,15.40
2017,07,20,06,51,15.40
2017,07,20,06,52,15.50
2017,07,20,06,53,15.50
2017,07,20,06,54,15.60
2017,07,20,06,55,15.60
2017,07,20,06,56,15.60
2017,07,20,06,57,15.70
2017,07,20,06,58,15.70
2017,07,20,06,59,15.80
2017,07,20,07,00,15.80
2017,07,20,07,01,15.90
2017,07,20,07,02,15.90
2017,07,20,07,03,15.90
2017,07,20,07,04,16.00
2017,07,20,07,05,16.00
2017,07,20,07,06,16.00
2017,07,20,07,07,16.10
2017,07,20,07,08,16.10
2017,07,20,07,09,16.10
2017,07,20,07,10,16.10
2017,07,20,07,11,16.10
2017,07,20,07,12,16.10
2017,07,20,07,13,16.10
2017,07,20,07,14,16.10
2017,07,20,07,15,16.10
2017,07,20,07,16,16.10
2017,07,20,07,17,16.10
2017,07,20,07,18,16.10
2017,07,20,07,19,16.10
2017,07,20,07,20,16.10
2017,07,20,07,21,16.00
2017,07,20,07,22,16.00
2017,07,20,07,23,16.00
2017,07,20,07,24,16.00
2017,07,20,07,25,16.10
2017,07,20,07,26,16.10
2017,07,20,07,27,16.10
2017,07,20,07,28,16.10
2017,07,20,07,29,16.10
2017,07,20,07,30,16.10
2017,07,20,07,31,16.10
2017,07,20,07,32,16.10
2017,07,20,07,33,16.10
2017,07,20,07,34,16.10
2017,07,20,07,35,16.20
2017,07,20,07,36,16.20
2017,07,20,07,37,16.20
2017,07,20,07,38,16.20
2017,07,20,07,39,16.20
2017,07,20,07,40,16.20
2017,07,20,07,41,16.20
2017,07,20,07,42,16.20
2017,07,20,07,43,16.30
2017,07,20,07,44,16.30
2017,07,20,07,45,16.30
2017,07,20,07,46,16.30
2017,07,20,07,47,16.30
2017,07,20,07,48,16.40
2017,07,20,07,49,16.40
2017,07,20,07,50,16.40
2017,07,20,07,51,16.40
2017,07,20,07,52,16.40
2017,07,20,07,53,16.40
2017,07,20,07,54,16.50
2017,07,20,07,55,16.50
2017,07,20,07,56,16.50
2017,07,20,07,57,16.60
2017,07,20,07,58,16.60
2017,07,20,07,59,16.60
2017,07,20,08,00,16.60
2017,07,20,08,01,16.60
2017,07,20,08,02,16.60
2017,07,20,08,03,16.70
2017,07,20,08,04,16.60
2017,07,20,08,05,16.70
2017,07,20,08,06,16.70
2017,07,20,08,07,16.70
2017,07,20,08,08,16.70
2017,07,20,08,09,16.70
2017,07,20,08,10,16.70
2017,07,20,08,11,16.70
2017,07,20,08,12,16.70
2017,07,20,08,13,16.70
2017,07,20,08,14,16.70
2017,07,20,08,15,16.70
2017,07,20,08,16,16.70
2017,07,20,08,17,16.70
2017,07,20,08,18,16.70
2017,07,20,08,19,16.80
2017,07,20,08,20,16.80
2017,07,20,08,21,16.80
2017,07,20,08,22,16.80
2017,07,20,08,23,16.80
2017,07,20,08,24,16.80
2017,07,20,08,25,16.80
2017,07,20,08,26,16.80
2017,07,20,08,27,16.80
2017,07,20,08,28,16.80
2017,07,20,08,29,16.80
2017,07,20,08,30,16.90
2017,07,20,08,31,16.90
2017,07,20,08,32,16.90
2017,07,20,08,33,16.90
2017,07,20,08,34,16.90
2017,07,20,08,35,17.00
2017,07,20,08,36,17.00
2017,07,20,08,37,17.00
2017,07,20,08,38,17.00
2017,07,20,08,39,17.00
2017,07,20,08,40,17.00
2017,07,20,08,41,17.00
2017,07,20,08,42,17.10
2017,07,20,08,43,17.10
2017,07,20,08,44,17.10
2017,07,20,08,45,17.10
2017,07,20,08,46,17.10
2017,07,20,08,47,17.10
2017,07,20,08,48,17.10
2017,07,20,08,49,17.10
2017,07,20,08,50,17.10
2017,07,20,08,51,17.10
2017,07,20,08,52,17.10
2017,07,20,08,53,17.10
2017,07,20,08,54,17.20
2017,07,20,08,55,17.20
2017,07,20,08,56,17.20
2017,07,20,08,57,17.20
2017,07,20,08,58,17.20
2017,07,20,08,59,17.20
2017,07,20,09,00,17.20
2017,07,20,09,01,17.20
2017,07,20,09,02,17.20
2017,07,20,09,03,17.20
2017,07,20,09,04,17.10
2017,07,20,09,05,17.10
2017,07,20,09,06,17.10
2017,07,20,09,07,17.10
2017,07,20,09,08,17.10
2017,07,20,09,09,17.10
2017,07,20,09,10,17.10
2017,07,20,09,11,17.10
2017,07,20,09,12,17.00
2017,07,20,09,13,16.90
2017,07,20,09,14,16.90
2017,07,20,09,15,16.90
2017,07,20,09,16,16.90
2017,07,20,09,17,17.00
2017,07,20,09,18,16.90
2017,07,20,09,19,16.90
2017,07,20,09,20,17.00
2017,07,20,09,21,17.00
2017,07,20,09,22,17.00
2017,07,20,09,23,17.00
2017,07,20,09,24,16.90
2017,07,20,09,25,16.90
2017,07,20,09,26,17.00
2017,07,20,09,27,17.00
2017,07,20,09,28,17.00
2017,07,20,09,29,17.00
2017,07,20,09,30,17.00
2017,07,20,09,31,17.10
2017,07,20,09,32,17.10
2017,07,20,09,33,17.20
2017,07,20,09,34,17.30
2017,07,20,09,35,17.30
2017,07,20,09,36,17.40
2017,07,20,09,37,17.40
2017,07,20,09,38,17.50
2017,07,20,09,39,17.50
2017,07,20,09,40,17.60
2017,07,20,09,41,17.60
2017,07,20,09,42,17.60
2017,07,20,09,43,17.60
2017,07,20,09,44,17.60
2017,07,20,09,45,17.70
2017,07,20,09,46,17.70
2017,07,20,09,47,17.70
2017,07,20,09,48,17.70
2017,07,20,09,49,17.80
2017,07,20,09,50,17.80
2017,07,20,09,51,17.90
2017,07,20,09,52,17.90
2017,07,20,09,53,17.90
2017,07,20,09,54,18.00
2017,07,20,09,55,18.10
2017,07,20,09,56,18.20
2017,07,20,09,57,18.30
2017,07,20,09,58,18.40
2017,07,20,09,59,18.40
2017,07,20,10,00,18.50
2017,07,20,10,01,18.60
2017,07,20,10,02,18.60
2017,07,20,10,03,18.70
2017,07,20,10,04,18.80
2017,07,20,10,05,18.80
2017,07,20,10,06,18.80
2017,07,20,10,07,18.90
2017,07,20,10,08,18.90
2017,07,20,10,09,18.90
2017,07,20,10,10,19.00
2017,07,20,10,11,19.00
2017,07,20,10,12,19.00
2017,07,20,10,13,19.00
2017,07,20,10,14,19.00
2017,07,20,10,15,19.00
2017,07,20,10,16,19.00
2017,07,20,10,17,19.00
2017,07,20,10,18,19.00
2017,07,20,10,19,19.00
2017,07,20,10,20,19.10
2017,07,20,10,21,19.10
2017,07,20,10,22,19.20
2017,07,20,10,23,19.20
2017,07,20,10,24,19.20
2017,07,20,10,25,19.20
2017,07,20,10,26,19.30
2017,07,20,10,27,19.30
2017,07,20,10,28,19.30
2017,07,20,10,29,19.30
2017,07,20,10,30,19.30
2017,07,20,10,31,19.30
2017,07,20,10,32,19.30
2017,07,20,10,33,19.30
2017,07,20,10,34,19.30
2017,07,20,10,35,19.30
2017,07,20,10,36,19.30
2017,07,20,10,37,19.30
2017,07,20,10,38,19.30
2017,07,20,10,39,19.30
2017,07,20,10,40,19.30
2017,07,20,10,41,19.20
2017,07,20,10,42,19.20
2017,07,20,10,43,19.20
2017,07,20,10,44,19.10
2017,07,20,10,45,19.10
2017,07,20,10,46,19.10
2017,07,20,10,47,19.10
2017,07,20,10,48,19.20
2017,07,20,10,49,19.20
2017,07,20,10,50,19.30
2017,07,20,10,51,19.30
2017,07,20,10,52,19.30
2017,07,20,10,53,19.30
2017,07,20,10,54,19.30
2017,07,20,10,55,19.30
2017,07,20,10,56,19.30
2017,07,20,10,57,19.30
2017,07,20,10,58,19.30
2017,07,20,10,59,19.30
2017,07,20,11,00,19.30
2017,07,20,11,01,19.40
2017,07,20,11,02,19.50
2017,07,20,11,03,19.50
2017,07,20,11,04,19.50
2017,07,20,11,05,19.40
2017,07,20,11,06,19.30
2017,07,20,11,07,19.30
2017,07,20,11,08,19.40
2017,07,20,11,09,19.50
2017,07,20,11,10,19.50
2017,07,20,11,11,19.50
2017,07,20,11,12,19.60
2017,07,20,11,13,19.80
2017,07,20,11,14,19.90
2017,07,20,11,15,20.00
2017,07,20,11,16,20.00
2017,07,20,11,17,19.90
2017,07,20,11,18,20.00
2017,07,20,11,19,19.90
2017,07,20,11,20,19.80
2017,07,20,11,21,19.70
2017,07,20,11,22,19.50
2017,07,20,11,23,19.50
2017,07,20,11,24,19.40
2017,07,20,11,25,19.50
2017,07,20,11,26,19.50
2017,07,20,11,27,19.50
2017,07,20,11,28,19.60
2017,07,20,11,29,19.60
2017,07,20,11,30,19.60
2017,07,20,11,31,19.60
2017,07,20,11,32,19.50
2017,07,20,11,33,19.50
2017,07,20,11,34,19.50
2017,07,20,11,35,19.50
2017,07,20,11,36,19.50
2017,07,20,11,37,19.60
2017,07,20,11,38,19.60
2017,07,20,11,39,19.70
2017,07,20,11,40,19.70
2017,07,20,11,41,19.80
2017,07,20,11,42,19.80
2017,07,20,11,43,19.80
2017,07,20,11,44,19.80
2017,07,20,11,45,19.90
2017,07,20,11,46,19.90
2017,07,20,11,47,19.90
2017,07,20,11,48,19.90
2017,07,20,11,49,19.90
2017,07,20,11,50,20.00
2017,07,20,11,51,20.10
2017,07,20,11,52,20.00
2017,07,20,11,53,20.00
2017,07,20,11,54,19.90
2017,07,20,11,55,19.90
2017,07,20,11,56,19.90
2017,07,20,11,57,19.90
2017,07,20,11,58,19.90
2017,07,20,11,59,19.90
2017,07,20,12,00,20.00
2017,07,20,12,01,20.10
2017,07,20,12,02,20.20
2017,07,20,12,03,20.30
2017,07,20,12,04,20.40
2017,07,20,12,05,20.40
2017,07,20,12,06,20.50
2017,07,20,12,07,20.60
2017,07,20,12,08,20.70
2017,07,20,12,09,20.80
2017,07,20,12,10,20.80
2017,07,20,12,11,20.90
2017,07,20,12,12,21.00
2017,07,20,12,13,21.10
2017,07,20,12,14,21.10
2017,07,20,12,15,21.20
2017,07,20,12,16,21.30
2017,07,20,12,17,21.30
2017,07,20,12,18,21.30
2017,07,20,12,19,21.30
2017,07,20,12,20,21.40
2017,07,20,12,21,21.40
2017,07,20,12,22,21.30
2017,07,20,12,23,21.20
2017,07,20,12,24,21.20
2017,07,20,12,25,21.10
2017,07,20,12,26,21.10
2017,07,20,12,27,21.00
2017,07,20,12,28,20.90
2017,07,20,12,29,20.90
2017,07,20,12,30,20.80
2017,07,20,12,31,20.80
2017,07,20,12,32,20.70
2017,07,20,12,33,20.70
2017,07,20,12,34,20.70
2017,07,20,12,35,20.80
2017,07,20,12,36,20.90
2017,07,20,12,37,20.90
2017,07,20,12,38,20.90
2017,07,20,12,39,20.80
2017,07,20,12,40,20.80
2017,07,20,12,41,20.80
2017,07,20,12,42,20.70
2017,07,20,12,43,20.70
2017,07,20,12,44,20.70
2017,07,20,12,45,20.70
2017,07,20,12,46,20.70
2017,07,20,12,47,20.80
2017,07,20,12,48,20.80
2017,07,20,12,49,20.90
2017,07,20,12,50,21.00
2017,07,20,12,51,21.20
2017,07,20,12,52,21.30
2017,07,20,12,53,21.40
2017,07,20,12,54,21.40
2017,07,20,12,55,21.40
2017,07,20,12,56,21.50
2017,07,20,12,57,21.50
2017,07,20,12,58,21.60
2017,07,20,12,59,21.70
2017,07,20,13,00,21.80
2017,07,20,13,01,21.80
2017,07,20,13,02,21.80
2017,07,20,13,03,21.70
2017,07,20,13,04,21.60
2017,07,20,13,05,21.60
2017,07,20,13,06,21.60
2017,07,20,13,07,21.60
2017,07,20,13,08,21.60
2017,07,20,13,09,21.60
2017,07,20,13,10,21.60
2017,07,20,13,11,21.60
2017,07,20,13,12,21.50
2017,07,20,13,13,21.40
2017,07,20,13,14,21.30
2017,07,20,13,15,21.30
2017,07,20,13,16,21.30
2017,07,20,13,17,21.40
2017,07,20,13,18,21.60
2017,07,20,13,19,21.60
2017,07,20,13,20,21.70
2017,07,20,13,21,21.70
2017,07,20,13,22,21.80
2017,07,20,13,23,21.80
2017,07,20,13,24,21.70
2017,07,20,13,25,21.70
2017,07,20,13,26,21.60
2017,07,20,13,27,21.50
2017,07,20,13,28,21.30
2017,07,20,13,29,21.20
2017,07,20,13,30,21.20
2017,07,20,13,31,21.20
2017,07,20,13,32,21.20
2017,07,20,13,33,21.10
2017,07,20,13,34,20.90
2017,07,20,13,35,20.80
2017,07,20,13,36,20.70
2017,07,20,13,37,20.50
2017,07,20,13,38,20.50
2017,07,20,13,39,20.40
2017,07,20,13,40,20.30
2017,07,20,13,41,20.30
2017,07,20,13,42,20.40
2017,07,20,13,43,20.50
2017,07,20,13,44,20.50
2017,07,20,13,45,20.60
2017,07,20,13,46,20.60
2017,07,20,13,47,20.60
2017,07,20,13,48,20.60
2017,07,20,13,49,20.60
2017,07,20,13,50,20.60
2017,07,20,13,51,20.70
2017,07,20,13,52,20.70
2017,07,20,13,53,20.70
2017,07,20,13,54,20.70
2017,07,20,13,55,20.70
2017,07,20,13,56,20.70
2017,07,20,13,57,20.70
2017,07,20,13,58,20.70
2017,07,20,13,59,20.80
2017,07,20,14,00,20.70
2017,07,20,14,01,20.80
2017,07,20,14,02,20.80
2017,07,20,14,03,20.80
2017,07,20,14,04,20.70
2017,07,20,14,05,20.70
2017,07,20,14,06,20.70
2017,07,20,14,07,20.80
2017,07,20,14,08,20.90
2017,07,20,14,09,20.90
2017,07,20,14,10,20.80
2017,07,20,14,11,20.80
2017,07,20,14,12,20.70
2017,07,20,14,13,20.80
2017,07,20,14,14,20.90
2017,07,20,14,15,21.00
2017,07,20,14,16,21.00
2017,07,20,14,17,21.00
2017,07,20,14,18,21.10
2017,07,20,14,19,21.10
2017,07,20,14,20,21.00
2017,07,20,14,21,20.90
2017,07,20,14,22,20.80
2017,07,20,14,23,20.80
2017,07,20,14,24,20.80
2017,07,20,14,25,20.70
2017,07,20,14,26,20.70
2017,07,20,14,27,20.70
2017,07,20,14,28,20.90
2017,07,20,14,29,21.00
2017,07,20,14,30,21.10
2017,07,20,14,31,21.20
2017,07,20,14,32,21.20
2017,07,20,14,33,21.20
2017,07,20,14,34,21.20
2017,07,20,14,35,21.20
2017,07,20,14,36,21.10
2017,07,20,14,37,21.10
2017,07,20,14,38,21.10
2017,07,20,14,39,21.10
2017,07,20,14,40,21.10
2017,07,20,14,41,21.20
2017,07,20,14,42,21.20
2017,07,20,14,43,21.10
2017,07,20,14,44,21.00
2017,07,20,14,45,21.00
2017,07,20,14,46,20.90
2017,07,20,14,47,20.90
2017,07,20,14,48,20.90
2017,07,20,14,49,20.90
2017,07,20,14,50,20.80
2017,07,20,14,51,20.80
2017,07,20,14,52,20.80
2017,07,20,14,53,20.80
2017,07,20,14,54,20.80
2017,07,20,14,55,20.90
2017,07,20,14,56,20.90
2017,07,20,14,57,20.90
2017,07,20,14,58,20.90
2017,07,20,14,59,21.00
2017,07,20,15,00,20.90
2017,07,20,15,01,20.70
2017,07,20,15,02,20.60
2017,07,20,15,03,20.50
2017,07,20,15,04,20.50
2017,07,20,15,05,20.40
2017,07,20,15,06,20.50
2017,07,20,15,07,20.50
2017,07,20,15,08,20.50
2017,07,20,15,09,20.50
2017,07,20,15,10,20.40
2017,07,20,15,11,20.30
2017,07,20,15,12,20.30
2017,07,20,15,13,20.40
2017,07,20,15,14,20.40
2017,07,20,15,15,20.50
2017,07,20,15,16,20.50
2017,07,20,15,17,20.40
2017,07,20,15,18,20.40
2017,07,20,15,19,20.30
2017,07,20,15,20,20.20
2017,07,20,15,21,20.20
2017,07,20,15,22,20.10
2017,07,20,15,23,20.10
2017,07,20,15,24,20.20
2017,07,20,15,25,20.20
2017,07,20,15,26,20.30
2017,07,20,15,27,20.30
2017,07,20,15,28,20.30
2017,07,20,15,29,20.20
2017,07,20,15,30,20.10
2017,07,20,15,31,20.10
2017,07,20,15,32,20.10
2017,07,20,15,33,20.10
2017,07,20,15,34,20.10
2017,07,20,15,35,20.20
2017,07,20,15,36,20.20
2017,07,20,15,37,20.30
2017,07,20,15,38,20.30
2017,07,20,15,39,20.30
2017,07,20,15,40,20.30
2017,07,20,15,41,20.40
2017,07,20,15,42,20.40
2017,07,20,15,43,20.40
2017,07,20,15,44,20.40
2017,07,20,15,45,20.30
2017,07,20,15,46,20.30
2017,07,20,15,47,20.30
2017,07,20,15,48,20.30
2017,07,20,15,49,20.30
2017,07,20,15,50,20.30
2017,07,20,15,51,20.30
2017,07,20,15,52,20.20
2017,07,20,15,53,20.20
2017,07,20,15,54,20.20
2017,07,20,15,55,20.10
2017,07,20,15,56,20.10
2017,07,20,15,57,20.10
2017,07,20,15,58,20.10
2017,07,20,15,59,20.10
2017,07,20,16,00,20.10
2017,07,20,16,01,20.00
2017,07,20,16,02,20.00
2017,07,20,16,03,20.00
2017,07,20,16,04,19.90
2017,07,20,16,05,19.90
2017,07,20,16,06,19.90
2017,07,20,16,07,19.90
2017,07,20,16,08,19.90
2017,07,20,16,09,19.90
2017,07,20,16,10,19.90
2017,07,20,16,11,19.80
2017,07,20,16,12,19.80
2017,07,20,16,13,19.80
2017,07,20,16,14,19.80
2017,07,20,16,15,19.90
2017,07,20,16,16,19.90
2017,07,20,16,17,19.90
2017,07,20,16,18,19.90
2017,07,20,16,19,19.90
2017,07,20,16,20,19.90
2017,07,20,16,21,19.90
2017,07,20,16,22,19.90
2017,07,20,16,23,19.90
2017,07,20,16,24,19.80
2017,07,20,16,25,19.70
2017,07,20,16,26,19.50
2017,07,20,16,27,19.40
2017,07,20,16,28,19.30
2017,07,20,16,29,19.20
2017,07,20,16,30,19.20
2017,07,20,16,31,19.10
2017,07,20,16,32,19.00
2017,07,20,16,33,19.00
2017,07,20,16,34,18.90
2017,07,20,16,35,18.90
2017,07,20,16,36,18.90
2017,07,20,16,37,18.90
2017,07,20,16,38,18.90
2017,07,20,16,39,18.90
2017,07,20,16,40,18.90
2017,07,20,16,41,18.90
2017,07,20,16,42,18.90
2017,07,20,16,43,18.80
2017,07,20,16,44,18.70
2017,07,20,16,45,18.70
2017,07,20,16,46,18.60
2017,07,20,16,47,18.50
2017,07,20,16,48,18.40
2017,07,20,16,49,18.40
2017,07,20,16,50,18.30
2017,07,20,16,51,18.30
2017,07,20,16,52,18.20
2017,07,20,16,53,18.20
2017,07,20,16,54,18.20
2017,07,20,16,55,18.20
2017,07,20,16,56,18.20
2017,07,20,16,57,18.20
2017,07,20,16,58,18.20
2017,07,20,16,59,18.20
2017,07,20,17,00,18.30
2017,07,20,17,01,18.40
2017,07,20,17,02,18.50
2017,07,20,17,03,18.50
2017,07,20,17,04,18.60
2017,07,20,17,05,18.70
2017,07,20,17,06,18.70
2017,07,20,17,07,18.70
2017,07,20,17,08,18.70
2017,07,20,17,09,18.70
2017,07,20,17,10,18.70
2017,07,20,17,11,18.70
2017,07,20,17,12,18.70
2017,07,20,17,13,18.70
2017,07,20,17,14,18.70
2017,07,20,17,15,18.70
2017,07,20,17,16,18.70
2017,07,20,17,17,18.70
2017,07,20,17,18,18.70
2017,07,20,17,19,18.70